Location: Bougoura
(13.1861°N, 5.0773°W)
Time: 10:29:41
(UTC+00:00)

Okean O Rocket - Pass Details

Date: 23 January 2021
Orbit: 622 x 645 km, 98.2° (Epoch: 25 February)

Event Time Altitude Azimuth Distance (km) Brightness Sun altitude
Rises 19:06:08 0° 196° (SSW) 2,945 5.5 -12.1°
Reaches altitude 10° 19:08:50 10° 213° (SSW) 2,036 5.0 -12.8°
Maximum altitude 19:12:04 20° 260° (W) 1,490 4.6 -13.5°
Drops below altitude 10° 19:15:17 10° 307° (NW) 2,033 4.7 -14.3°
Sets 19:18:00 0° 325° (NW) 2,940 5.3 -14.9°
